Regional Weather Roundup
Issued by NWS

Home | Current Version | Previous Version | Graphics & Text | Print | Product List | Glossary On
Versions: 1 2 3 4 5 6 7 8 9 10 11 12 13 14 15 16 17 18 19 20 21 22 23 24 25 26 27 28 29 30 31 32 33 34 35 36 37 38 39 40 41 42 43 44 45 46 47 48 49 50
000
ASUS44 KMEG 100700
RWRTN
TENNESSEE HOURLY STATE WEATHER ROUNDUP
NATIONAL WEATHER SERVICE MEMPHIS TN
100 AM CST WED FEB 10 2016

TNZ002-004-019-021-049-052-054-088>092-100800-
WEST TENNESSEE

CITY           SKY/WX    TMP DP  RH WIND       PRES   REMARKS
MEMPHIS INTL   CLEAR     29  12  49 NW10      30.18R WCI  20
NWS MEMPHIS      N/A     28 N/A N/A MISG        N/A
JACKSON        CLEAR     22  12  65 NW5       30.15S WCI  16
DYERSBURG      CLEAR     25  12  58 NW8       30.18S WCI  16
UNION CITY     CLEAR     19  12  73 W6        30.13S WCI  11
PARIS          CLOUDY    19  10  68 W5        30.10S WCI  13
$$

TNZ008-025-027-028-033-062-065-066-100800-
NORTH MIDDLE TENNESSEE

CITY           SKY/WX    TMP DP  RH WIND       PRES   REMARKS
NASHVILLE      LGT SNOW  21  16  81 CALM      30.09F
CLARKSVILLE    CLOUDY    20  16  84 SW3       30.08F
CROSSVILLE     LGT SNOW  16  10  77 W15G23    29.95S WCI   1
$$

TNZ061-075-076-078-094-096-097-100800-
SOUTH MIDDLE TENNESSEE

CITY           SKY/WX    TMP DP  RH WIND       PRES   REMARKS
TULLAHOMA      CLOUDY    18  16  93 NW8       30.06S WCI   7
WINCHESTER     CLOUDY    19  12  73 NW3       30.07R
SHELBYVILLE    CLOUDY    21  18  86 CALM      30.09S
$$

TNZ017-018-042-046-047-100800-
NORTHEAST TENNESSEE

CITY           SKY/WX    TMP DP  RH WIND       PRES   REMARKS
TRI CITIES     LGT SNOW  21  18  88 W9        29.89S FOG     WCI  11
$$

TNZ012-013-036-069-073-074-100800-
CENTRAL EAST TENNESSEE

CITY           SKY/WX    TMP DP  RH WIND       PRES   REMARKS
KNOXVILLE      LGT SNOW  21  12  68 NW13      29.99S WCI   9
OAK RIDGE      CLOUDY    22   7  52 NW6       30.01S WCI  14
GATLINBURG     CLOUDY    21  10  63 W7        29.97F WCI  13
$$

TNZ083-085-099-100800-
SOUTHEAST TENNESSEE

CITY           SKY/WX    TMP DP  RH WIND       PRES   REMARKS
CHATTANOOGA    CLOUDY    24   8  50 NW14G22   30.07R WCI  12
$$

SKY/WX REPORTED AS FAIR MEANS FEW OR NO CLOUDS BELOW
12 THOUSAND FEET.




USA.gov is the U.S. government's official web portal to all federal, state and local government web resources and services.